This demonstration page uses our WeatherBlox Daily Observations layout. Learn more.

Left ArrowRight Arrow

Hourly Observations for October 26, 2018

Temp ( °F °C ) Dew Point ( °F °C ) Humidity (%) Winds ( mph kmh ) Pressure ( in mb ) Visibility ( mi km ) Precip ( " mm )
12:57 am 00:57 Clear 40 4.4 39 3.9 97 97 SSW 6 9 29.93 1014 10 16 0.00 0.00
1:57 am 01:57 Clear 39 3.9 39 3.9 100 100 SSW 7 11 29.92 1013 10 16 0.00 0.00
2:57 am 02:57 Clear 38 3.3 38 3.3 100 100 SW 5 7 29.92 1013 10 16 0.00 0.00
3:57 am 03:57 Clear 38 3.3 37 2.8 97 97 WNW 6 9 29.91 1013 10 16 0.00 0.00
5:57 am 05:57 Mostly Cloudy 43 6.1 40 4.4 89 89 NW 7 11 29.91 1013 10 16 0.00 0.00
6:57 am 06:57 Clear 41 5 38 3.3 89 89 NW 8 13 29.92 1013 10 16 0.00 0.00
7:57 am 07:57 Clear 41 5 38 3.3 89 89 NW 8 13 29.92 1013 10 16 0.00 0.00
8:57 am 08:57 Sunny 45 7.2 40 4.4 83 83 WNW 8 13 29.93 1014 10 16 0.00 0.00
9:57 am 09:57 Sunny 48 8.9 42 5.6 80 80 NW 9 15 29.95 1014 10 16 0.00 0.00
10:57 am 10:57 Sunny 55 12.8 44 6.7 67 67 WNW 10 17 29.94 1014 10 16 0.00 0.00
11:57 am 11:57 Sunny 62 16.7 42 5.6 48 48 NW 12 19 29.93 1014 10 16 0.00 0.00
12:57 pm 12:57 Sunny 65 18.3 36 2.2 34 34 NNW 13 20 29.90 1013 10 16 0.00 0.00
1:57 pm 13:57 Sunny 67 19.4 37 2.8 33 33 NNW 14 22 29.87 1012 10 16 0.00 0.00
2:57 pm 14:57 Sunny 67 19.4 36 2.2 32 32 NNW 12 19 29.85 1011 10 16 0.00 0.00
3:57 pm 15:57 Sunny 69 20.6 36 2.2 30 30 NW 13 20 29.84 1011 10 16 0.00 0.00
4:57 pm 16:57 Partly Cloudy 68 20 34 1.1 28 28 NNW 15 24 29.85 1011 10 16 0.00 0.00
5:57 pm 17:57 Mostly Cloudy 65 18.3 36 2.2 34 34 NNW 9 15 29.85 1011 10 16 0.00 0.00
6:57 pm 18:57 Cloudy 61 16.1 38 3.3 43 43 NNW 6 9 29.88 1012 10 16 0.00 0.00
8:57 pm 20:57 Mostly Clear 54 12.2 39 3.9 57 57 NW 7 11 29.90 1013 10 16 0.00 0.00
9:57 pm 21:57 Clear 53 11.7 38 3.3 57 57 NW 6 9 29.91 1013 10 16 0.00 0.00
10:57 pm 22:57 Mostly Cloudy 52 11.1 38 3.3 59 59 WNW 7 11 29.91 1013 10 16 0.00 0.00
11:57 pm 23:57 Partly Cloudy 50 10 38 3.3 63 63 WNW 7 11 29.90 1013 10 16 0.00 0.00

Powered by AerisWeather